Regional Weather Roundup
Issued by NWS Spokane, WA

Home | Current Version | Previous Version | Text Only | Print | Product List | Glossary On
Versions: 1 2 3 4 5 6 7 8 9 10 11 12 13 14 15 16 17 18 19 20 21 22 23 24 25 26 27 28 29 30 31 32 33 34 35 36 37 38 39 40 41 42 43 44 45 46 47 48 49 50
664
NZUS01 KOTX 260800
RWROTX

Eastern Washington/Northern Idaho Roundup
National Weather Service, Spokane WA
100 AM PDT TUE SEP 26 2017

Note: "fair" indicated few or no clouds below 12,000 feet with no
significant weather and/or obstructions to visibility.

...Northeast Washington and Northern Idaho Panhandle...

CITY           SKY/WX    TMP DP  RH WIND       PRES   REMARKS
Spokane Intl   MOCLDY    52  45  77 S7        30.10S
Spokane Downto CLOUDY    55  48  77 CALM      30.11R
Coeur d Alene  CLOUDY    53  48  83 S5        30.12R
Deer Park      CLOUDY    49  46  90 CALM      30.10R

...Southeast Washington and southern Idaho Panhandle...

CITY           SKY/WX    TMP DP  RH WIND       PRES   REMARKS
Walla Walla    MOCLDY    62  49  62 S9        30.08R
Pullman/Moscow PTCLDY    53  43  68 NE5       30.13R
Lowell           N/A     51  48  89 CALM      30.17R

...Columbia Basin...

CITY           SKY/WX    TMP DP  RH WIND       PRES   REMARKS
Ephrata        CLEAR     54  43  66 CALM      30.06S
Moses Lake     PTCLDY    48  43  82 N3        30.07R
Pasco          CLOUDY    63  54  72 CALM      30.07R
Hermiston      CLOUDY    62  51  67 SW6       30.07R
Pendleton      CLOUDY    60  48  64 CALM      30.09R

...East Slopes Cascades...

CITY           SKY/WX    TMP DP  RH WIND       PRES   REMARKS
The Dalles     CLEAR     63  52  67 NW7       30.07S
Yakima         PTCLDY    52  46  80 W6        30.09R
Ellensburg     PTCLDY    53  45  74 NW7       30.10R
Wenatchee      PTCLDY    59  46  62 N10       30.08S
Omak           PTCLDY    60  48  64 N10       30.07S
Sunnyside      CLOUDY    55  51  87 CALM      30.07S

...Southern British Columbia...

CITY           SKY/WX    TMP DP  RH WIND       PRES   REMARKS

...Western Montana...

CITY           SKY/WX    TMP DP  RH WIND       PRES   REMARKS
Kalispell      PTSUNNY   45  45 100 CALM      30.11R FOG
Missoula       CLOUDY    48  46  93 CALM      30.14R

...Neighboring Cities...

CITY           SKY/WX    TMP DP  RH WIND       PRES   REMARKS
Seattle        MOCLDY    62  54  74 CALM      30.14R
Portland       MOCLDY    62  58  86 W3        30.11S
Boise          PTCLDY    54  39  57 SE10      30.10R
Great Falls    CLOUDY    50  39  66 SW10      30.05S



USA.gov is the U.S. government's official web portal to all federal, state and local government web resources and services.